www.pogodaiklimat.ru

Погода и климат >> Архив погоды >> Индонезия >> Ларантука


ПОГОДА в Ларантуке

  • Прогноз погоды в Ларантуке
  • Монитор погоды в Ларантуке

АРХИВ ПОГОДЫ в Ларантуке

Время (UTC), дата Ветер
(напр.,м/с)
 
Видим.   Явления Облачность Т
(С)
Тd
(С)
f
(%)
Тe
(С)
Тes
(С)
Комфортность P
(гПа)
Po
(гПа)
Тmin
(С)
Tmax
(С)
R
(мм)
R24
(мм)
S
(см)
03 20.06 ЮВ 3 15 км 1/1 600 м
[Cu hum Ci fib]
+30.5 +19.7 53 +37 +49 очень
душно
1012.3 1011.1
06 20.06 СЗ 3 15 км 1/1 600 м
[Cu hum Ci fib]
+32.0 +18.8 46 +37 +46 очень
душно
1010.6 1009.4
09 20.06 штиль 0 15 км 1/1 600 м
[Cu hum Ci fib]
+30.0 +19.3 53 +36 +36 очень
душно
1010.9 1009.7
12 20.06 штиль 0 8000 м 1/1 600 м
[Cu hum Ci fib]
+24.4 +19.4 74 +30 +30 очень
душно
1012.6 1011.4 +32.4
15 20.06 штиль 0 8000 м 1/1 600 м
[Cu hum Ci fib]
+22.0 +18.4 80 +27 +27 душно 1012.5 1011.4
18 20.06 З 2 8000 м 1/1 600 м
[Cu hum Ci fib]
+22.4 +17.8 75 +27 +27 душно 1012.1 1010.9
21 20.06 штиль 0 8000 м 1/1 600 м
[Cu hum Ci fib]
+22.4 +18.2 77 +28 +28 душно 1012.0 1010.8
00 21.06 ЮЗ 2 15 км 1/1 600 м
[Cu hum Ci fib]
+26.6 +20.3 68 +33 +37 очень
душно
1012.9 1011.7 +22.0
03 21.06 С 2 15 км 1/1 600 м
[Cu hum Ci fib]
+30.4 +19.8 53 +37 +51 опасность
солнечного
удара
1011.8 1010.6
06 21.06 СВ 3 15 км 1/1 600 м
[Cu hum Ci fib]
+30.2 +20.2 55 +37 +46 очень
душно
1009.3 1008.1
09 21.06 штиль 0 15 км 1/1 600 м
[Cu hum Ci fib]
+29.4 +20.6 59 +36 +37 очень
душно
1009.3 1008.1
12 21.06 штиль 0 8000 м 1/1 600 м
[Cu hum Ci fib]
+24.9 +20.4 76 +31 +31 очень
душно
1011.2 1010.0 +30.8
15 21.06 штиль 0 8000 м 1/1 600 м
[Cu hum Ci fib]
+22.6 +18.9 80 +28 +28 душно 1012.0 1010.8
18 21.06 штиль 0 8000 м 1/1 600 м
[Cu hum Ci fib]
+23.0 +18.3 75 +29 +29 очень
душно
1011.4 1010.3
21 21.06 штиль 0 8000 м 1/1 600 м
[Cu hum Ci fib]
+23.4 +18.3 73 +29 +29 душно 1011.5 1010.4
00 22.06 З 2 15 км 1/1 600 м
[Cu hum Ci fib]
+26.4 +20.9 72 +33 +37 очень
душно
1012.1 1010.9 +22.6
03 22.06 Ю 3 15 км 4/3 600 м
[Cu hum Ci fib]
+30.3 +21.0 58 +38 +47 очень
душно
1011.2 1010.0
06 22.06 СЗ 2 15 км 5/5 600 м
[Cu med, cong Ci fib]
+29.8 +21.4 61 +38 +44 очень
душно
1008.9 1007.7
09 22.06 штиль 0 15 км 3/3 600 м
[Cu hum Ci fib]
+28.0 +22.0 70 +36 +37 очень
душно
1009.3 1008.1
12 22.06 штиль 0 8000 м 1/1 600 м
[Cu hum Ci fib]
+24.7 +21.6 83 +32 +32 очень
душно
1011.1 1009.9 +31.8
15 22.06 ЮЗ 1 8000 м 1/1 600 м
[Cu hum Ci fib]
+23.0 +20.5 86 +30 +30 очень
душно
1011.3 1010.2
18 22.06 З 2 8000 м 1/1 600 м
[Cu hum Ci fib]
+23.0 +19.5 81 +30 +30 очень
душно
1011.0 1009.8
21 22.06 З 2 8000 м 1/1 600 м
[Cu hum Ci fib]
+22.2 +18.6 80 +27 +27 душно 1011.6 1010.5
00 23.06 З 2 15 км 1/1 600 м
[Cu hum Ci fib]
+26.5 +20.8 71 +33 +37 очень
душно
1012.7 1011.5 +21.8
03 23.06 С 2 15 км 1/1 600 м
[Cu hum Ci fib]
+31.4 +20.3 52 +38 +52 опасность
солнечного
удара
1011.8 1010.6
06 23.06 Ю 3 15 км 1/1 600 м
[Cu hum Ci fib]
+32.6 +20.0 47 +39 +47 очень
душно
1009.4 1008.2
09 23.06 З 2 15 км 1/1 600 м
[Cu hum Ci fib]
+29.6 +21.5 62 +38 +38 очень
душно
1010.5 1009.3
12 23.06 штиль 0 8000 м 1/1 600 м
[Cu hum Ci fib]
+25.2 +20.9 77 +32 +32 очень
душно
1012.0 1010.8 +32.8
15 23.06 штиль 0 8000 м 1/1 600 м
[Cu hum Ci fib]
+23.9 +19.6 77 +29 +29 душно 1012.5 1011.3
18 23.06 ЮЗ 2 8000 м 1/1 600 м
[Cu hum Ci fib]
+23.1 +18.8 77 +29 +29 очень
душно
1012.4 1011.2
21 23.06 З 2 8000 м 1/1 600 м
[Cu hum Ci fib]
+23.3 +19.5 79 +30 +30 очень
душно
1012.7 1011.5
00 24.06 штиль 0 15 км 1/1 600 м
[Cu hum Ci fib]
+27.0 +20.9 69 +34 +39 очень
душно
1014.1 1012.9 +23.2
03 24.06 Ю 4 15 км 1/1 600 м
[Cu hum Ci fib]
+32.0 +20.3 50 +39 +48 очень
душно
1013.4 1012.2
06 24.06 Ю 3 15 км 1/1 600 м
[Cu hum Ci fib]
+31.0 +19.1 49 +36 +45 очень
душно
1011.5 1010.3
09 24.06 Ю 2 15 км 1/1 600 м
[Cu hum Ci fib]
+29.8 +19.0 52 +35 +35 очень
душно
1011.9 1010.7
12 24.06 ЮЗ 2 8000 м 1/1 600 м
[Cu hum Ci fib]
+25.6 +19.7 70 +31 +31 очень
душно
1013.8 1012.6 +33.0
15 24.06 З 2 8000 м 1/1 600 м
[Cu hum Ci fib]
+24.6 +19.2 72 +30 +30 очень
душно
1013.9 1012.7
18 24.06 Ю 2 8000 м 1/1 600 м
[Cu hum Ci fib]
+25.4 +19.5 70 +31 +31 очень
душно
1013.2 1012.0
21 24.06 ЮЗ 3 8000 м 1/1 600 м
[Cu hum Ci fib]
+24.2 +18.5 70 +29 +29 душно 1013.8 1012.6
00 25.06 СЗ 2 15 км 1/1 600 м
[Cu hum Ci fib]
+26.6 +19.4 65 +32 +36 очень
душно
1015.2 1014.0 +22.8
03 25.06 Ю 4 15 км 1/1 600 м
[Cu hum Ci fib]
+31.0 +18.3 47 +36 +46 очень
душно
1014.4 1013.2
06 25.06 Ю 4 15 км 1/1 600 м
[Cu hum Ci fib]
+31.4 +18.4 46 +36 +43 очень
душно
1012.7 1011.5
09 25.06 Ю 3 15 км 1/1 600 м
[Cu hum Ci fib]
+29.1 +20.3 59 +36 +36 очень
душно
1012.6 1011.4
12 25.06 Ю 3 8000 м 1/1 600 м
[Cu hum Ci fib]
+25.6 +19.3 68 +31 +31 очень
душно
1014.0 1012.8 +32.6
15 25.06 ЮЗ 2 8000 м 1/1 600 м
[Cu hum Ci fib]
+22.6 +18.4 77 +28 +28 душно 1014.4 1013.2
18 25.06 штиль 0 8000 м 1/1 600 м
[Cu hum Ci fib]
+22.4 +18.5 79 +28 +28 душно 1013.3 1012.1
21 25.06 ЮЗ 2 8000 м 1/1 600 м
[Cu hum Ci fib]
+20.8 +18.1 85 +25 +25 комфорт 1013.6 1012.5
00 26.06 Ю 3 15 км 1/1 600 м
[Cu hum Ci fib]
+25.4 +18.4 65 +30 +33 душно 1014.5 1013.4 +20.4
03 26.06 С 2 15 км 1/1 600 м
[Cu hum Ci fib]
+30.1 +19.4 53 +36 +51 опасность
солнечного
удара
1013.2 1012.0
06 26.06 Ю 3 15 км 1/1 600 м
[Cu hum Ci fib]
+31.2 +18.6 47 +36 +44 очень
душно
1010.8 1009.6
09 26.06 С 3 15 км 1/1 600 м
[Cu hum Ci fib]
+27.8 +18.4 57 +33 +33 очень
душно
1011.3 1010.1
12 26.06 штиль 0 8000 м 1/1 600 м
[Cu hum Ci fib]
+23.6 +18.0 71 +28 +28 душно 1013.1 1011.9 +31.6
15 26.06 штиль 0 8000 м 1/1 600 м
[Cu hum Ci fib]
+21.3 +16.8 76 +25 +25 комфорт 1013.6 1012.5
18 26.06 штиль 0 8000 м 1/1 600 м
[Cu hum Ci fib]
+22.0 +16.3 70 +26 +26 душно 1012.6 1011.4
21 26.06 штиль 0 8000 м 1/1 600 м
[Cu hum Ci fib]
+21.0 +15.0 69 +24 +24 комфорт 1012.3 1011.1

 

Местоположение метеостанции Ларантука (Индонезия): широта -8.27 долгота 122.97 высота над уровнем моря 9 м.

В архиве по умолчанию представлена погода в Ларантуке за последнюю неделю. Архивные данные за месяц целиком и за предыдущие месяцы, начиная с января 2011 года, Вы можете получить, выбрав интересующий диапазон дат из раскрывающегося списка и нажав кнопку "Ввод!".


*Определитесь, кто Вы:
робот инопланетянин человек

Внимание! Время в таблицах - всемирное. Для получения местного времени необходимо прибавить поправку, которая равна 8 ч.

Смотрите также архив погоды в соседних городах и на ближайших метеорологических станциях:

Погода в Маумере (Индонезия) (89 км)
Погода на Алоре (Индонезия) (175 км)
Погода в Купанге (Индонезия) (223 км)
Погода на Роти (Индонезия) (274 км)
Погода в Сабу (Индонезия) (278 км)
Погода в Рутенге (Индонезия) (280 км)
Погода в Бау-Бау (Индонезия) (314 км)
Погода в Аэропорту Умбу Механг Кунда (Индонезия) (329 км)
Погода в Кендари (Индонезия) (468 км)
Погода в Колаке (Индонезия) (469 км)

Пояснения к столбцам:

Ветер - указаны скорость ветра в м/с - средняя за 10 мин, порывы в срок и между сроками (в фигурных скобках) и направление, откуда дует ветер: С - северный, СВ - северо-восточный, В - восточный, ЮВ - юго-восточный, Ю - южный, ЮЗ - юго-западный, З - западный, СЗ - северо-западный.
Видимость - горизонтальная дальность видимости в метрах или километрах. При видимости от 1 до 10 км при отсутствии осадков обычно наблюдается дымка, при ухудшении видимости до 1 км и менее - туман. В сухую погоду видимость может ухудшаться дымом, пылью или мглою.
Явления - указаны атмосферные явления, наблюдавшиеся в срок или в последний час перед сроком; фигурными скобками обозначены явления, наблюдавшиеся между сроками (за 1-3 часа до срока); квадратными скобками обозначены град или гололедные отложения с указанием их диаметра в мм.
Облачность - указаны через наклонную черту общая и нижняя облачность в баллах и высота нижней границы облаков в метрах; квадратными скобками обозначены формы облаков: Ci - перистые, Cs - перисто-слоистые, Cc - перисто-кучевые, Ac - высококучевые, As - высокослоистые, Sc - слоисто-кучевые, Ns - слоисто-дождевые, Cu - кучевые, Cb - кучево-дождевые. Подробнее классификацию облаков см. в Атласе облаков (PDF).
T - Температура воздуха - температура, измеренная на высоте 2 м над землей.
Td - Температура точки росы - температура, при понижении до которой содержащийся в воздухе водяной пар достигнет насыщения.
f - Относительная влажность воздуха - влажноcть воздуха, измеренная на высоте 2 м над землей.
Te - Эффективная температура - температура, которую ощущает одетый по сезону человек в тени. Характеристика душности погоды. При расчете учитывается влияние влажности воздуха и скорости ветра на теплоощущения человека.
Tes - Эффективная температура на солнце - температура, которую ощущает человек, с поправкой на солнечный нагрев. Характеристика знойности погоды. Зависит от высоты солнца над горизонтом, облачности и скорости ветра. Ночью, в пасмурную погоду, а также при ветре 12 м/с и более поправка равна нулю.
P - Атмосферное давление - приведенное к уровню моря атмосферное давление.
Po - Атмосферное давление - измеренное на уровне метеостанции атмосферное давление.
Tmin - Минимальная температура - минимум температуры воздуха на высоте 2 м над землей.
Tmax - Максимальная температура - максимум температуры воздуха на высоте 2 м над землей.
R - Количество осадков - Количество выпавших осадков за период времени, мм. При наведении курсора мыши на число - период времени, за который выпало указанное количество осадков.
R24 - Количество осадков - Количество выпавших осадков за 24 часа, мм.
S - Снежный покров - Высота снежного покрова, см. При наведении курсора мыши на число - состояние снежного покрова и степень покрытия местности в баллах.